    Orbital elements:
    2012 DX75                                                Earth MOID = 0.0503 AU
    Epoch 2023 Sept. 13.0 TT = JDT 2460200.5                Veres                   
    M  49.61179              (2000.0)            P               Q                  
    n   0.27177283     Peri.  211.85248     -0.70611643     +0.70555055             
    a   2.3604711      Node    13.55994     -0.58404199     -0.53241931             
    e   0.5733577      Incl.   14.82296     -0.40036800     -0.46768375             
    P   3.63           H   20.34          G   0.15           U   0                  
    Residuals in seconds of arc
    120229 703  0.3-  0.3-    120322 C73  0.4+  0.0     120327 C01  0.0   0.5+
    120229 703  0.7+  0.1-    120322 C73  0.3+  0.1+    120327 C01  0.2-  0.4+
    120229 703  0.6-  0.1+    120322 C73  0.7+  0.5+    120327 C01  0.2-  0.5+
    120229 703  0.0   1.2+    120322 C73  1.0+  1.0+    120327 C01  0.1-  0.3+
    120229 703  0.3-  0.7-    120322 C73  0.3+  0.4+    120327 C01  0.1-  0.4+
    120229 703  0.4+  0.4-    120322 C73  0.2+  0.0     120327 C01  0.0   0.3+
    120229 703  0.4-  1.2-    120322 C73  0.7+  0.0     120327 C01  0.1-  0.3+
    120229 H01  0.1-  0.3-    120322 C73  0.4+  0.3+    120327 C01  0.2-  0.4+
    120229 703  0.7-  1.0-    120322 A17  0.2+  0.2-    120327 C01  0.1-  0.5+
    120229 H01  0.1-  0.1-    120322 A17  0.6+  0.1-    120327 C01  0.2-  0.6+
    120229 H01  0.1-  0.2-    120322 A17  0.3+  0.1+    120327 C01  0.2-  0.5+
    120229 H01  0.4+  0.2-    120323 510  0.0   0.0     120327 C01  0.1-  0.4+
    120229 695  0.2+  0.3-    120323 510  0.0   0.1+    120327 A24  0.3+  0.0
    120229 695  0.2+  0.1-    120323 510  0.1+  0.0     120327 A24  0.1+  0.2+
    120229 695  0.2+  0.2-    120323 510  0.0   0.0     120327 H23  0.4+  0.4+
    120229 695  0.2+  0.1-    120323 704  0.5+  0.9-    120327 H23  0.2+  0.2-
    120229 291  0.1+  0.2-    120323 704  0.4+  0.8-    120327 H23  0.5+  0.7-
    120229 291  0.3-  0.0     120323 704  0.2+  0.9-    120327 703  0.1-  0.0
    120229 291  0.1-  0.1-    120323 704  0.5+  0.6-    120327 H21  0.2-  0.1+
    120229 C93  0.5+  0.1+    120323 704  0.2+  0.8-    120327 703  0.1-  0.2+
    120229 C92  0.1-  0.1-    120323 C47  0.0   0.2-    120327 H21  0.2-  0.1-
    120229 A24  0.2+  0.2-    120323 C47  0.5-  0.1-    120327 H21  0.2-  0.0
    120229 C93  0.6+  0.1-    120323 C47  0.2-  0.0     120327 703  0.2-  0.3+
    120229 A24  0.4+  0.2-    120323 C01  0.0   0.0     120327 H21  0.1-  0.0
    120229 A24  0.3+  0.4-    120323 C01  0.1-  0.2+    120327 H21  0.1+  0.1-
    120301 A24  0.2-  0.2-    120323 C47  0.4-  0.1+    120327 703  0.0   0.0
    120301 C92  0.0   0.1-    120323 C01  0.0   0.3+    120327 H21  0.0   0.2-
    120301 A24  0.0   0.1+    120323 C01  0.1-  0.1+    120327 850  0.0   0.0
    120301 I93  0.4-  0.1-    120323 C01  0.1-  0.0     120327 850  0.4+  0.1+
    120301 I93  0.2-  0.0     120324 C01  0.1-  0.2+    120327 850  0.1+  0.1+
    120301 I93  0.4-  0.1-    120324 C01  0.1-  0.1+    120327 850  0.2+  0.2+
    120301 G84  0.8-  0.3-    120324 C01  0.1-  0.1+    120327 379  0.3-  0.6+
    120301 G84  0.0   0.2+    120324 C01  0.0   0.1+    120327 379  0.1+  0.2-
    120301 G84  0.2-  0.0     120324 C01  0.1-  0.2+    120327 379  0.0   0.7+
    120301 G84  0.3-  0.0     120324 G48  0.3+  0.7+    120327 379  1.1-  0.5+
    120301 H21  0.1-  0.2-    120324 G48  0.1-  1.0+    120327 379  1.0-  1.0+
    120301 H21  0.0   0.1-    120324 G48  0.2-  0.3+    120327 379  0.4-  0.2-
    120301 H21  0.1+  0.1+    120324 G48  0.0   0.7+    120327 379  0.1-  1.0+
    120301 H21  0.1+  0.0     120324 G48  0.0   0.7+    120327 A24  0.2+  0.3-
    120301 291  0.0   0.1+    120324 G48  0.1+  0.9+    120327 A24  0.2-  0.3+
    120301 291  0.2-  0.1+    120324 G48  0.1-  0.4+    120327 A24  0.1-  0.1-
    120301 291  0.1-  0.3+    120324 G48  0.2+  0.4+    120327 A24  0.2-  0.3+
    120302 204  0.0   0.1-    120324 H45  0.0   0.3+    120327 A24  0.2-  0.3+
    120302 204  0.1-  0.1-    120324 H45  0.4+  0.0     120327 A24  0.1-  0.2+
    120302 204  0.1-  0.1-    120324 H45  0.3+  0.1+    120327 J84  0.2+  0.2-
    120302 854  0.5-  0.2+    120324 H45  0.3+  0.1+    120327 J84  0.1+  0.1-
    120302 854  0.1-  0.5-    120324 H45  0.1+  0.2+    120327 J84  0.2+  0.3-
    120302 854  0.8-  0.4+    120324 H45  0.3+  0.2+    120327 A53  0.2+  0.3+
    120303 595  0.5-  0.1-    120324 H45  0.1+  0.0     120327 A53  0.3-  0.2+
    120303 595  0.4-  0.3-    120324 379  0.4-  0.2+    120327 A53  0.5-  0.5-
    120303 595  0.4-  0.4-    120324 379  0.5-  0.0     120327 A53  0.4-  0.4+
    120303 G51  0.1+  0.3-    120324 379  0.2-  0.1+    120327 A53  0.2-  0.2+
    120303 G51  0.2-  0.4-    120324 379  0.2-  0.2-    120327 A53  0.6-  0.2+
    120303 G51  0.1-  0.2-    120324 379  0.5-  0.2+    120328 H23  0.1+  0.7-
    120303 G51  0.1+  0.3-    120324 379  0.7-  0.3+    120328 H23 (0.1-  1.9-)
    120303 G51  0.1-  0.2-    120324 379  0.1-  0.2+    120328 H23  0.2-  0.1-
    120303 G51  0.0   0.5-    120324 379  0.1+  0.3+    120328 850  0.3+  0.0
    120303 G51  0.2+  0.5-    120325 H23  0.6-  0.0     120328 850  0.3+  0.1-
    120303 G51  0.2+  0.4-    120325 H23  0.7-  0.1+    120328 H21  0.1-  0.2+
    120303 682  0.1+  0.4-    120325 H23  0.5-  0.5+    120328 H21  0.1+  0.3+
    120303 682  0.2+  0.2-    120325 H45  0.4+  0.5+    120328 H21  0.0   0.3+
    120303 291  0.1-  0.1-    120325 H45  0.7+  0.7-    120328 850  0.0   0.2-
    120303 291  0.1+  0.2-    120325 H45  0.7+  0.6-    120328 H21  0.0   0.2+
    120303 291  0.1-  0.0     120325 H45  0.7+  0.8-    120328 H21  0.0   0.2+
    120304 H21  0.1-  0.2-    120325 H45  0.5+  0.5-    120328 H21  0.0   0.4+
    120304 H21  0.0   0.3-    120325 H45  0.5+  0.5-    120328 H45  0.1-  0.6+
    120304 H21  0.3+  0.2-    120325 H45  0.5+  0.6-    120328 H45  0.2-  0.7+
    120304 H45  0.3-  0.1-    120325 379  1.1-  0.7+    120328 H45  0.0   0.5+
    120304 H45  0.2-  0.1+    120325 379  0.9-  0.8+    120328 H45  0.1+  0.5+
    120304 H45  0.2+  0.1+    120325 379  0.6-  0.5+    120328 H45  0.0   0.4+
    120304 H21  0.6-  0.1+    120325 379  1.1-  0.4+    120328 H45  0.0   0.7+
    120304 H45  0.4+  0.0     120325 379  1.1-  0.1+    120328 H45  0.2+  0.7+
    120304 H45  0.2-  0.2+    120325 A27  0.3+  0.2-    120328 379  1.0-  0.2+
    120304 H45  0.4+  0.4+    120325 A27  0.4+  0.3-    120328 379  1.0-  0.1-
    120304 H21  0.2-  0.1-    120325 A27  0.0   0.2-    120328 379  1.1-  0.4+
    120304 H45  0.6-  0.5+    120325 A27  0.6+  0.3-    120328 379  0.3-  0.3+
    120304 H21  0.0   0.2+    120325 A27  0.1+  0.4+    120328 379  0.7-  0.2-
    120308 J41  0.7-  0.1+    120325 A13 (1.1-  2.7+)   120328 379  0.6-  0.4+
    120308 J41  1.1-  0.4+    120325 A13 (0.9-  2.3+)   120328 379  0.4-  0.4+
    120308 J41  0.5-  0.5+    120325 A13 (1.0-  2.5+)   120328 C01  0.1-  0.3+
    120312 291  0.2-  0.1+    120325 A13 (1.0-  2.7+)   120328 C01  0.1+  0.6+
    120312 291  0.0   0.1+    120326 379  0.6-  0.8+    120328 C01  0.1-  0.6+
    120312 291  0.1+  0.3-    120326 379  0.2-  0.5+    120328 C01  0.0   0.4+
    120313 H21  0.0   0.1-    120326 379  0.4-  0.6+    120328 C01  0.1-  0.6+
    120313 H21  0.1+  0.1-    120326 379  0.8-  0.3+    120328 C01  0.0   0.1+
    120313 H21  0.0   0.2-    120326 379  0.3-  0.5+    120328 C01  0.2+  0.2+
    120313 H21  0.0   0.0     120326 379  0.4-  0.7+    120328 C01  0.3-  0.2+
    120313 H45  0.1-  0.2-    120326 C01  0.0   0.0     120328 C01  0.0   0.0
    120313 H45  0.3-  0.5-    120326 C01  0.0   0.1-    120328 C01  0.2+  0.1+
    120313 H45  0.1+  0.0     120326 C01  0.1+  0.1-    120328 C01  0.1+  0.2+
    120313 H45  0.3-  0.0     120326 089  0.0   0.0     120328 C01  0.2+  0.1+
    120313 H45  0.0   0.3-    120326 089  0.1+  0.2-    120328 C01  0.1-  0.3+
    120313 H45  0.2-  0.0     120326 089  0.1+  0.0     120328 C01  0.1-  0.2+
    120313 H45  0.3+  0.2-    120326 089  0.1+  0.3+    120328 C01  0.2+  0.3+
    120313 703  0.5-  0.1+    120326 C01  0.1+  0.0     120328 C01  0.0   0.1+
    120313 703  0.3+  0.1-    120326 C01  0.0   0.1+    120328 C01  0.1-  0.3+
    120313 703  0.3-  0.0     120326 C01  0.1-  0.2+    120328 C01  0.1-  0.2+
    120313 C32  0.3+  0.4-    120326 C01  0.1-  0.1+    120328 C01  0.0   0.4+
    120313 C32  0.2+  0.5+    120326 089  0.0   0.0     120328 C01  0.1-  0.2+
    120313 C32  0.5-  0.6-    120326 C01  0.0   0.0     120328 C01  0.3+  0.1+
    120314 A24  0.0   0.1-    120326 C01  0.1-  0.1+    120328 C01  0.0   0.2+
    120314 A24  0.2-  0.2-    120326 C01  0.1-  0.2+    120328 C01  0.0   0.4+
    120314 160  0.1-  0.2-    120326 C01  0.0   0.1+    120328 C01  0.3+  0.3+
    120314 160  0.2+  0.4+    120326 089  0.1-  0.1+    120328 C01  0.1-  0.2+
    120314 160  0.1-  0.6+    120326 C01  0.1-  0.2+    120328 C01  0.0   0.4+
    120314 A24  0.2-  0.1-    120326 C01  0.0   0.2+    120328 C01  0.2-  0.3+
    120314 A24  0.2+  0.1-    120326 C01  0.1-  0.1+    120328 C01  0.1-  0.3+
    120314 A24  0.0   0.0     120326 C01  0.1-  0.1+    120328 C01  0.1-  0.4+
    120314 A24  0.1-  0.0     120326 C01  0.1-  0.1+    120328 C01  0.0   0.5+
    120314 807  0.3-  0.7-    120326 C01  0.1-  0.0     120328 C01  0.2-  0.7+
    120314 807  0.2-  0.3-    120326 C01  0.1-  0.0     120328 C01  0.0   0.4+
    120314 807  0.1-  0.2-    120326 C01  0.1-  0.1+    120328 C01  0.2+  0.2+
    120314 807  0.2-  0.0     120326 C01  0.0   0.1+    120328 C01  0.1+  0.3+
    120314 807  0.2-  0.2-    120326 089  0.1+  0.2+    120328 C01  0.1+  0.4+
    120314 807  0.1-  0.0     120326 C01  0.1-  0.2+    120328 C01  0.1+  0.4+
    120314 807  0.2-  0.3-    120326 C01  0.1-  0.2+    120328 C01  0.1+  0.4+
    120314 704  0.3+  0.6+    120326 C01  0.0   0.2+    120328 C01  0.1-  0.4+
    120314 704  0.3+  0.3+    120326 C01  0.1-  0.2+    120328 C01  0.1+  0.7+
    120314 704  0.9+  0.2+    120326 B75  0.5+  1.2-    120328 C01  0.0   0.3+
    120314 704  0.0   0.0     120326 C01  0.0   0.2+    120328 C01  0.1+  0.5+
    120314 H21  0.3-  0.1+    120326 089  0.0   0.3+    120328 C01  0.1+  0.5+
    120314 H21  0.3-  0.1+    120326 C01  0.1-  0.3+    120328 C01  0.1-  0.6+
    120314 H21  0.0   0.2+    120326 B75  0.3+  0.1-    120328 C01  0.1-  0.6+
    120314 H21  0.0   0.1-    120326 C01  0.1-  0.2+    120328 C01  0.0   0.5+
    120314 H21  0.3+  0.1-    120326 B75  0.1-  0.6-    120328 C01  0.1-  0.6+
    120314 704  0.1+  0.0     120326 C01  0.1-  0.2+    120328 C01  0.0   0.5+
    120315 A24  0.1+  0.0     120326 B75  0.7-  0.2-    120328 C01  0.1-  0.6+
    120315 A24  0.2-  0.0     120326 C01  0.1-  0.3+    120328 C01  0.1-  0.5+
    120315 A24  0.2+  0.3-    120326 B75  0.1-  0.6+    120328 C01  0.2-  0.6+
    120315 A24  0.2-  0.0     120326 C01  0.0   0.2+    120328 046  0.2+  0.4+
    120315 130  0.5+  0.0     120326 089  0.0   0.1+    120328 046  0.0   0.1-
    120315 130  0.3+  0.0     120326 C01  0.0   0.1+    120328 046  0.0   0.1-
    120315 130  0.1+  0.4-    120326 B75  0.5-  1.0+    120328 046  0.2-  0.2+
    120315 130  0.5+  0.3-    120326 C01  0.0   0.2+    120328 A24  0.1+  0.2+
    120315 A24  0.8+  0.2-    120326 C01  0.1-  0.2+    120328 A24  0.0   0.5+
    120315 A24  0.0   0.1+    120326 C01  0.1-  0.2+    120329 A24  0.2+  0.6-
    120315 A24  0.0   0.2+    120326 C01  0.1-  0.2+    120329 A24  0.4-  0.2+
    120315 A24  0.4-  0.1+    120326 C01  0.0   0.3+    120329 A24  0.2-  0.3+
    120315 G48  0.7-  1.6+    120326 089  0.1-  0.0     120329 A24  0.1+  0.2+
    120315 G48  0.1-  0.7+    120326 C01  0.0   0.2+    120329 850  0.0   0.1+
    120315 G48  0.6-  0.4+    120326 C01  0.1-  0.1+    120329 850  0.3-  0.4+
    120315 H21  0.0   0.1-    120326 C01  0.2-  0.3+    120329 850  0.3-  0.4+
    120315 H21  0.2+  0.1-    120326 C01  0.1-  0.3+    120329 H45  0.3+  0.2+
    120315 H21  0.0   0.1-    120326 C01  0.1-  0.2+    120329 H45  0.0   0.2-
    120315 H21  0.0   0.1-    120326 089  0.1+  0.0     120329 H45  0.1+  0.2-
    120315 046  0.0   0.2-    120326 C01  0.1-  0.2+    120329 H45  0.0   0.2+
    120315 046  0.1+  0.1-    120326 C01  0.1-  0.2+    120329 H45  0.1+  0.2-
    120315 046  0.0   0.1+    120326 C01  0.1-  0.2+    120329 H45  0.2+  0.0
    120315 046  0.0   0.0     120326 C01  0.1-  0.3+    120329 H45  0.2+  0.2-
    120315 046  0.0   0.1-    120326 C01  0.1-  0.3+    120329 F51  0.3+  0.3+
    120316 046  0.1-  0.2-    120326 089  0.0   0.1-    120329 F51  0.0   0.0
    120316 046  0.0   0.1-    120326 C01  0.0   0.2+    120329 168  0.3+  0.8-
    120316 046  0.1+  0.1-    120326 C01  0.1-  0.3+    120329 168  0.1+  0.0
    120316 046  0.1+  0.1-    120326 C01  0.1-  0.3+    120329 168  0.3+  0.7-
    120316 046  0.2-  0.3-    120326 C01  0.1+  0.1+    120401 204  0.1+  0.2+
    120317 160  0.1-  0.5+    120326 C01  0.1-  0.1+    120401 204  0.1-  0.1+
    120317 160  0.2+  0.5+    120326 C01  0.1-  0.3+    120401 204  0.1-  0.4+
    120317 160  0.4+  0.5+    120326 C01  0.0   0.3+    120401 204  0.1+  0.0
    120317 H21  0.0   0.0     120326 C01  0.1-  0.2+    120401 204  0.1+  0.0
    120317 H21  0.0   0.1-    120326 C01  0.2-  0.3+    120401 H45  0.4+  0.4-
    120317 H21  0.0   0.0     120326 C01  0.2-  0.4+    120401 H45  0.1+  0.0
    120317 157  0.1+  0.1+    120326 C01  0.1-  0.3+    120401 H45  0.1+  0.3-
    120317 157  0.0   0.1+    120326 C01  0.1-  0.3+    120401 H45  0.0   0.2-
    120317 157  0.2-  0.2+    120326 C01  0.1-  0.2+    120401 H45  0.0   0.2+
    120317 157  0.1-  0.2-    120326 C01  0.1-  0.3+    120401 H45  0.1+  0.1-
    120318 J16  0.2-  0.1-    120326 C01  0.0   0.2+    120401 H45  0.3+  0.2-
    120318 J16  0.3+  0.0     120326 C01  0.1-  0.3+    120401 H45  0.2+  0.1-
    120318 J16  0.1+  0.3-    120326 C01  0.2-  0.2+    120401 355  0.2-  0.2+
    120319 A74  0.0   0.1+    120326 C01  0.1-  0.3+    120401 355  0.0   0.2+
    120319 A74  0.1-  0.0     120326 C01  0.1-  0.3+    120401 355  0.2+  0.0
    120319 A74  0.2-  0.1-    120326 C01  0.0   0.3+    120401 355  0.6-  0.5+
    120319 A74  0.0   0.2-    120326 C01  0.1-  0.3+    120401 355  0.4-  0.0
    120319 A74  0.1-  0.0     120326 C01  0.0   0.3+    120402 H23  0.4+  0.6-
    120319 A74  0.2-  0.3-    120326 C01  0.1-  0.3+    120402 H23  0.8+  0.4-
    120320 A74  0.1+  0.2-    120326 C01  0.2-  0.3+    120402 H23  0.9+  0.2-
    120320 160  0.3+  0.2-    120326 C01  0.1-  0.4+    120402 850  0.4+  0.6+
    120320 160  0.0   0.1+    120326 C01  0.2-  0.3+    120402 850  0.2+  0.5+
    120320 160  0.1-  0.0     120326 C01  0.1-  0.4+    120402 H45  0.7+  0.1+
    120320 089  0.2-  0.3-    120326 C01  0.0   0.4+    120402 H45  0.2+  0.2+
    120320 089  0.3-  0.2-    120326 C01  0.1-  0.4+    120402 H45  0.3+  0.3+
    120320 089  0.1+  0.6-    120326 C01  0.0   0.3+    120402 H45  0.2+  0.0
    120320 089  0.1+  0.2-    120326 C01  0.2-  0.4+    120402 H45  0.1+  0.1+
    120320 A17  0.2-  0.1+    120326 C01  0.1-  0.4+    120402 H45  0.1+  0.2+
    120320 089  0.3-  0.0     120326 C01  0.2-  0.3+    120402 H45  0.2+  0.4+
    120320 089  0.5+  0.4-    120326 C01  0.2-  0.4+    120402 H45  0.0   0.1+
    120320 089  0.2-  0.2-    120326 C01  0.3-  0.4+    120402 H45  0.2+  0.2+
    120320 A17  0.2+  0.1-    120326 C01  0.2-  0.4+    120402 H45  0.3+  0.4+
    120320 A17  0.1-  0.2+    120326 C01  0.1-  0.4+    120402 850  0.1+  0.6+
    120320 046  0.1+  0.1+    120327 C01  0.2-  0.4+    120402 850  0.0   0.8+
    120320 046  0.1-  0.0     120327 C01  0.1-  0.4+    120402 H21  0.3+  0.0
    120320 046  0.0   0.1-    120327 C01  0.2-  0.4+    120402 H21  0.3+  0.2-
    120320 046  0.3-  0.0     120327 C01  0.1-  0.4+    120402 H21  0.0   0.0
    120320 046  0.2-  0.2-    120327 C01  0.1-  0.4+    120402 H21  0.0   0.0
    120321 C60  0.8+  1.1-    120327 C01  0.1-  0.6+    120402 H21  0.3+  0.1-
    120321 C60  0.1-  0.1+    120327 C01  0.2-  0.5+    120402 H21  0.3+  0.0
    120321 C60  0.2+  0.2-    120327 A24  0.0   0.0     120403 D90  0.4+  0.3-
    120321 C60  0.1-  1.1-    120327 C01  0.1-  0.5+    120403 D90  0.3+  0.1-
    120321 C60  0.3-  0.5-    120327 C01  0.1-  0.6+    120403 D90  0.6+  1.3-
    120321 F51  0.0   0.1+    120327 A24  0.2-  0.0     120403 D90  0.9+  1.4-
    120321 F51  0.1+  0.1-    120327 C01  0.2-  0.4+    120408 807  0.0   0.0
    120321 F51  0.0   0.1-    120327 C01  0.1-  0.4+    120408 807  0.1-  0.2+
    120321 300  1.0-  0.6+    120327 C01  0.1-  0.5+    120408 807  0.2+  0.1-
    120321 300  1.0-  0.8+    120327 C01  0.2-  0.2+    120408 807  0.1+  0.3-
    120321 300  0.8-  1.2+    120327 C01  0.2-  0.5+    120408 807  0.1-  0.2+
    120321 300  0.3-  0.6+    120327 C01  0.2-  0.5+    120408 807  0.1-  0.1-
    120321 300  0.0   0.2+    120327 C01  0.1-  0.4+    120415 E12  0.2+  0.3+
    120321 300  0.0   1.3+    120327 C01  0.2-  0.4+    120415 E12  0.1+  0.1+
    120321 046  0.1+  0.2-    120327 C01  0.2-  0.6+    120419 807  0.5+  0.2-
    120321 046  0.0   0.0     120327 C01  0.1-  0.5+    120419 807  0.3+  0.1-
    120321 046  0.1+  0.1-    120327 C01  0.1-  0.3+    120419 807  0.4+  0.0
    120321 046  0.0   0.1-    120327 C01  0.0   0.4+    120419 807  0.5+  0.1+
    120321 B75  0.1-  0.7+    120327 C01  0.1-  0.5+    120501 807  0.1+  0.0
    120321 B75  0.2+  1.2+    120327 C01  0.2-  0.5+    120501 807  0.1+  0.4+
    120321 B75  0.5-  0.6-    120327 C01  0.1-  0.4+    120501 807  0.1+  0.1+
    120321 B75  0.7-  1.1+    120327 C01  0.0   0.3+    120501 807  0.1+  0.1+
    120321 B75  0.7+  1.6-    120327 C01  0.1-  0.4+    120501 807  0.0   0.1+
    120321 B75  2.0+  0.9-    120327 C01  0.2-  0.4+    120519 807  0.0   0.0
    120322 246  0.0   0.2-    120327 C01  0.1-  0.4+    120519 807  0.2+  0.1-
    120322 246  0.1-  0.2+    120327 C01  0.0   0.2+    120519 807  0.1-  0.3-
    120322 246  0.0   0.1+    120327 C01  0.2-  0.3+    120520 807  0.1+  0.1-
    120322 C81 (6.1-  0.2-)   120327 C01  0.1-  0.3+    120520 807  0.1+  0.1-
    120322 246  0.5-  0.5+    120327 A24  0.2-  0.0     120520 807  0.5+  0.0
    120322 C81  2.8-  0.4-    120327 C01  0.1-  0.5+    120710 807  0.0   0.3+
    120322 C81  0.5+  0.2-    120327 C01  0.1-  0.3+    120710 807  0.0   0.2+
    120322 246  0.1-  0.1+    120327 C01  0.1-  0.2+    120710 807  0.4+  0.0
    120322 B88  0.3+  0.8-    120327 C01  0.1-  0.4+    120710 807  0.4+  0.3+
    120322 B88  0.4+  1.1-    120327 C01  0.2-  0.2+    120710 807  0.3+  0.4+
    120322 B88  0.2+  0.8-    120327 C01  0.1-  0.5+    120724 807  0.0   0.6+
    120322 113  0.4-  0.2-    120327 C01  0.2-  0.4+    120724 807  0.0   0.5+
    120322 113  0.3+  0.1-    120327 C01  0.3-  0.6+    120724 807  0.0   0.1+
    120322 113  0.1+  0.2+    120327 C01  0.1-  0.4+    120724 807  0.1-  0.0
    120322 C73  0.2+  0.1-    120327 C01  0.1-  0.5+    120724 807  0.1-  0.2+
    120322 C73  0.0   0.1+    120327 C01  0.1-  0.4+    230809 T12  0.1+  0.0
    120322 C73  0.2+  0.3-    120327 C01  0.2-  0.6+    230811 T12  0.1+  0.1+
    120322 C73  0.5+  0.3+    120327 C01  0.2-  0.5+    230819 F51  0.1-  0.1+
    120322 C73  0.3+  0.3-    120327 C01  0.1-  0.5+    230819 F51  0.0   0.3+
    120322 C73  0.4+  0.7-    120327 C01  0.0   0.3+    230819 F51  0.2-  0.0
    120322 C73  0.2+  0.2-    120327 C01  0.1-  0.3+    230819 F51  0.2-  0.2+
    120322 C73  0.3+  0.0     120327 C01  0.1-  0.6+    230904 F52  0.1-  0.1+
    120322 C73  0.2+  0.2-    120327 C01  0.1-  0.5+
    120322 C73  0.3+  0.1-    120327 C01  0.3-  0.5+
    
